• MPC Preparation (Info)

  • MPEC 2019-M46 : 2019 LG6

    The following Minor Planet Electronic Circular may be linked-to from your own Web pages, but must not otherwise be redistributed electronically.

    A form allowing access to any MPEC is at the bottom of this page.


    Read MPEC 2019-M45 Read MPEC 2019-M47


    M.P.E.C. 2019-M46                                Issued 2019 June 19, 17:44 UT  
    
         The Minor Planet Electronic Circulars contain information on unusual
             minor planets and routine data on comets.  They are published
        on behalf of Division F of the International Astronomical Union by the
              Minor Planet Center, Smithsonian Astrophysical Observatory,
                              Cambridge, MA 02138, U.S.A.
    
                 Prepared using the Tamkin Foundation Computer Network
    
                                  MPC@CFA.HARVARD.EDU
                URL https://www.minorplanetcenter.net/    ISSN 1523-6714
    
                                    2019 LG6                                 
    
    Observations:
         K19L06G* C2019 06 10.54476 21 02 29.268+13 44 35.90         19.6 wUEM046F52
         K19L06G  C2019 06 10.55573 21 02 41.822+13 45 28.66         19.5 wUEM046F52
         K19L06G  C2019 06 10.56664 21 02 54.331+13 46 21.26         19.5 wUEM046F52
         K19L06G KC2019 06 11.00358 21 11 47.70 +14 21 20.1          19.7 GVEM046Z84
         K19L06G KC2019 06 11.01530 21 12 00.91 +14 22 11.7          19.1 RoEM046K88
         K19L06G KC2019 06 11.01855 21 12 04.91 +14 22 28.1          19.1 RoEM046K88
         K19L06G KC2019 06 11.02180 21 12 09.00 +14 22 44.6          19.2 RoEM046K88
         K19L06G KC2019 06 11.02557 21 12 15.13 +14 23 09.7          19.8 GVEM046Z84
         K19L06G KC2019 06 11.02947 21 12 19.98 +14 23 29.5          20.3 GVEM046Z84
         K19L06G KC2019 06 11.26220721 17 19.47 +14 42 43.0          19.6 VuEM046H21
         K19L06G KC2019 06 11.26366021 17 21.34 +14 42 50.5          19.6 VuEM046H21
         K19L06G KC2019 06 11.26879421 17 28.01 +14 43 16.8          19.5 VuEM046H21
         K19L06G  C2019 06 11.37008 21 19 41.63 +14 51 53.6          18.7 GVEM046I52
         K19L06G  C2019 06 11.37312 21 19 45.57 +14 52 09.5          19.4 GVEM046I52
         K19L06G  C2019 06 11.37332 21 19 45.81 +14 52 10.6          19.0 GVEM046I52
         K19L06G 1C2019 06 11.39810 21 20 18.64 +14 53 55.4                LEM046658
         K19L06G 1C2019 06 11.39862 21 20 19.33 +14 53 58.1                LEM046658
         K19L06G 1C2019 06 11.39916 21 20 20.02 +14 54 00.9                LEM046658
         K19L06G 1C2019 06 11.39965 21 20 20.69 +14 54 03.6                LEM046658
         K19L06G 1C2019 06 11.40019 21 20 21.38 +14 54 06.5                LEM046658
         K19L06G 1C2019 06 11.40067 21 20 22.04 +14 54 09.3                LEM046658
         K19L06G KC2019 06 11.42456 21 20 53.30 +14 56 19.0          18.8 GVEM046V01
         K19L06G KC2019 06 11.43672 21 21 09.34 +14 57 23.8          19.7 GVEM046V01
         K19L06G KC2019 06 11.44240 21 21 16.86 +14 57 51.8          20.1 GVEM046V01
         K19L06G KC2019 06 11.44834 21 21 24.74 +14 58 21.9          19.5 GVEM046V01
         K19L06G KC2019 06 11.97775 21 33 51.65 +15 43 03.4          19.1 RoEM046K88
         K19L06G KC2019 06 11.98236 21 33 58.39 +15 43 27.5          19.0 RoEM046K88
         K19L06G KC2019 06 11.98697 21 34 05.09 +15 43 51.2          19.0 RoEM046K88
         K19L06G pC2019 06 12.05067421 35 38.40 +15 49 22.7          19.7 GVEM046L01
         K19L06G KC2019 06 12.05099621 35 38.89 +15 49 24.6          19.6 GVEM046L01
         K19L06G KC2019 06 12.05205721 35 40.42 +15 49 30.2          19.8 GVEM046L01
         K19L06G KC2019 06 12.05289021 35 41.62 +15 49 34.2          19.6 GVEM046L01
         K19L06G IC2019 06 12.05405421 35 43.34 +15 49 40.3          19.6 GVEM046L01
         K19L06G KC2019 06 12.42363 21 45 06.98 +16 21 24.7          19.0 GVEM046V01
         K19L06G KC2019 06 12.42619 21 45 10.95 +16 21 38.2          19.4 GVEM046V01
         K19L06G KC2019 06 12.42888 21 45 15.09 +16 21 52.0          19.8 GVEM046V01
         K19L06G KC2019 06 12.43455 21 45 23.79 +16 22 22.3          18.8 GVEM046V01
         K19L06G KC2019 06 12.44525 21 45 40.43 +16 23 16.4          20.0 GVEM046V01
         K19L06G  C2019 06 12.45688 21 45 58.48 +16 24 26.6          19.5 GVEM046I52
         K19L06G  C2019 06 12.45719 21 45 58.97 +16 24 27.4          19.5 GVEM046I52
         K19L06G  C2019 06 12.45749 21 45 59.43 +16 24 29.9          19.6 GVEM046I52
         K19L06G  C2019 06 12.45779 21 45 59.91 +16 24 31.1          19.1 GVEM046I52
         K19L06G  C2019 06 13.44554 22 13 52.60 +17 47 25.4          19.6 GVEM046I52
         K19L06G  C2019 06 13.44578 22 13 52.99 +17 47 26.7          19.2 GVEM046I52
         K19L06G  C2019 06 13.44602 22 13 53.45 +17 47 27.0                VEM046I52
         K19L06G  C2019 06 13.44627 22 13 53.81 +17 47 28.9                VEM046I52
         K19L06G KC2019 06 14.04111 22 32 31.87 +18 33 31.9          19.4 RVEM046A17
         K19L06G KC2019 06 14.05024 22 32 49.50 +18 34 13.2          18.9 RVEM046A17
         K19L06G KC2019 06 14.06432 22 33 16.57 +18 35 16.0          19.2 RVEM046A17
         K19L06G KC2019 06 14.34190122 42 26.26 +18 55 34.0          19.6 VuEM046H21
         K19L06G KC2019 06 14.34394122 42 30.30 +18 55 43.3          19.4 VuEM046H21
         K19L06G KC2019 06 14.34700322 42 36.34 +18 55 57.5          19.5 VuEM046H21
         K19L06G  C2019 06 15.45056 23 21 22.24 +20 01 22.6          20.0 GVEM046I52
         K19L06G  C2019 06 15.45113 23 21 23.41 +20 01 24.0          19.8 GVEM046I52
         K19L06G  C2019 06 15.45228 23 21 25.95 +20 01 27.6          19.9 GVEM046I52
    
    Observer details:
    658 National Research Council of Canada.  Observer D. D. Balam.  
        1.82-m reflector + CCD.
    A17 Guidestar Observatory, Weinheim.  Observers M. Emmerich, S. Melchert.  
        0.36-m f/6 Schmidt-Cassegrain + CCD.
    F52 Pan-STARRS 2, Haleakala.  Observers J. Bulger, T. Dukes, T. Lowe,
        A. Schultz, M. Willman.  Measurers K. Chambers, S. Chastel, T. de Boer,
        L. Denneau, J. Fairlamb, H. Flewelling, M. Huber, C.-C. Lin, E. Magnier,
        Y. Ramanjooloo, R. Wainscoat, R. Weryk.  1.8-m Ritchey-Chretien + CCD.
    H21 Astronomical Research Observatory, Westfield.  Observer R. Holmes.  
        Measurers S. Foglia, L. Buzzi, T. Linder, R. Holmes.  
        0.76-m f/3.0 astrograph + CCD.
    I52 Steward Observatory, Mt. Lemmon Station.  Observers H. Groeller,
        T. A. Pruyne.  Measurers B. M. Africano, E. J. Christensen, G. A. Farneth,
        D. C. Fuls, A. R. Gibbs, A. D. Grauer, H. Groeller, R. A. Kowalski,
        S. M. Larson, G. J. Leonard, T. A. Pruyne, D. Rankin, R. L. Seaman,
        F. C. Shelly.  1.0-m reflector + CCD.
    K88 GINOP-KHK, Piszkesteto.  Observer K. Sarneczky.  0.60-m Schmidt + CCD.
    L01 Visnjan Observatory, Tican.  Observer K. Korlevic.  
        1.0-m f/2.9 reflector + CCD.
    V01 Mountainville Observatory, Alpine.  Observer B. Sheets.  
        0.35-m f/7.7 Schmidt-Cassegrain + CCD.
    Z84 Calar Alto-Schmidt.  Observer E. Schwab.  Measurers E. Schwab, D. Koschny,
        M. Micheli.  0.8-m f/3 Schmidt + CCD.
    
    Orbital elements:
    2019 LG6                                            PHA, Earth MOID = 0.0360 AU
    Epoch 2019 Apr. 27.0 TT = JDT 2458600.5                 MPC
    M 332.50197              (2000.0)            P               Q
    n   0.28677995     Peri.  260.59105     +0.95572508     +0.05507868
    a   2.2773871      Node    95.84884     +0.05307688     +0.93394759
    e   0.7371381      Incl.   16.89227     -0.28943465     +0.35314053
    P   3.44           H   21.8           G   0.15           U   7
    Residuals in seconds of arc
    190610 F52  0.3-  0.0     190611 658  0.2+  1.2-    190612 I52  0.0   0.1-
    190610 F52  0.2-  0.0     190611 658  0.5+  0.8-    190612 I52  0.1+  0.9-
    190610 F52  0.0   0.2+    190611 V01  0.9+  2.3-    190612 I52  0.0   0.1+
    190611 Z84  0.1-  0.5+    190611 V01  0.2+  0.9+    190612 I52  0.3+  0.3-
    190611 K88  0.1-  0.7+    190611 V01  0.1+  0.1+    190613 I52  0.3+  0.3-
    190611 K88  0.7-  0.9+    190611 V01  0.1+  0.2+    190613 I52  0.2-  0.2-
    190611 K88  0.1-  1.2+    190611 K88  0.7-  0.7+    190613 I52  0.3+  1.0-
    190611 Z84  0.1+  0.0     190611 K88  0.1-  0.9+    190613 I52  1.0-  0.4-
    190611 Z84  0.2-  0.3+    190611 K88  0.1-  0.6+    190614 A17  1.2+  0.7+
    190611 H21  0.3-  0.4+    190612 L01  0.1-  0.1+    190614 A17  1.3+  0.3+
    190611 H21  0.5-  0.6+    190612 L01  0.2+  0.3+    190614 A17  0.4-  0.9-
    190611 H21  0.3-  0.8+    190612 L01  0.1-  0.4+    190614 H21  0.0   0.2-
    190611 I52  0.4+  0.3-    190612 L01  0.4-  0.1+    190614 H21  0.1-  0.3+
    190611 I52  0.3-  0.1+    190612 L01  0.2-  0.2+    190614 H21  0.8-  1.4+
    190611 I52  0.7-  0.2+    190612 V01  0.1+  0.1+    190615 I52  0.6+  0.3-
    190611 658  0.6+  1.7-    190612 V01  0.3+  0.3+    190615 I52  0.3-  0.5-
    190611 658  0.6+  1.6-    190612 V01  0.0   0.2+    190615 I52  0.4+  0.2-
    190611 658  0.2+  1.6-    190612 V01  1.0-  1.1+
    190611 658  0.6+  1.4-    190612 V01  0.1+  0.1-
    
    Ephemeris:
    2019 LG6                 a,e,i = 2.28, 0.74, 17                  q = 0.5986
    Date    TT    R. A. (2000) Decl.     Delta      r    Elong.  Phase     V
    2019 05 20    18 41 11.8 +01 13 20   0.4267  1.3352   131.9    34.3    22.0
    ...
    2019 06 04    19 41 45.1 +07 17 54   0.2082  1.1535   127.7    44.1    20.4
    ...
    2019 06 12    21 34 19.5 +15 45 34   0.1168  1.0544   106.4    67.5    19.6
    ...
    2019 06 18    00 55 42.4 +20 26 18   0.09965 0.9799    66.1   108.5    20.8
    2019 06 19    01 29 44.9 +19 48 34   0.1041  0.9675    59.6   115.1    21.3
    2019 06 20    02 00 13.3 +18 54 18   0.1105  0.9551    53.9   120.8    21.8
    ...
    2019 06 26    03 52 15.2 +13 06 03   0.1731  0.8818    35.7   137.7    24.3
    ...
    2019 07 04    04 50 18.9 +09 23 08   0.2854  0.7883    31.7   137.4    25.1
    ...
    2019 07 19    05 39 19.5 +08 39 40   0.5357  0.6464    34.1   118.3    24.2
    
    A. U. Tomatic                (C) Copyright 2019 MPC           M.P.E.C. 2019-M46
    


    Read MPEC 2019-M45 Read MPEC 2019-M47


    MPEC number:

    Enter an MPEC number in one of the following forms:

    • 1997-B01 (the full form)
    • J97B01 (the packed version of the full form)
    • B01 (the abbreviated form)